Live-Position
3D-Globus wird geladen...
Über Starlink 3267
Group: 3 satellites
Beschreibung wird geladen...
Nächste Überflüge
Passes for default location (London). Set your location on the main map for personalized predictions.
Höhenverlauf
Loading altitude history...
No altitude history available
Zweizeiliger Elementsatz
1 50197U 21125AT 26106.84689046 -.00000478 00000-0 -11928-4 0 9999
2 50197 53.2176 67.8247 0001369 87.4965 272.6184 15.08837505242549
Epoch: 16. Apr. 2026 •
Age: 14 hours
Aktueller Status
Höhe 544.5 km
Geschwindigkeit 7.59 km/s
Subsatellitenpunkt -16.35°S,
48.85°E
Startdatum 18. Dez. 2021
Alter 4.3 years
Typ internet
Startgruppe
Falcon 9 •
Group 4-4 •
38 satellites
Starlink 3297
50159
Starlink 3304 50161
Starlink 3306 50163
Starlink 3298 50165
Starlink 3305 50166
Starlink 3271 50167
Starlink 3301 50169
Starlink 3245 50170
Starlink 3286 50171
Starlink 3287 50172
Starlink 3289 50173
Starlink 3292 50174
Starlink 3291 50175
Starlink 3293 50176
Starlink 3282 50177
Starlink 3283 50179
Starlink 3265 50180
Starlink 3285 50181
Starlink 3277 50182
Starlink 3281 50183
...and 17 more
Technische Details
Klassifizierung Payload
Masse 290.00 kg
Trockenmasse 270.00 kg
Gesamtmasse 290.00 kg
Länge 0.20 m
Durchmesser 2.80 m
Spannweite 9.00 m
Form Box + pan
Hersteller SPXS
Bus-Typ Starlink
Phasenstatus In Orbit
Besitzer/Staat SPXS/US
Most Searched
Loading...